Terminal Aerodrome Forecast
Issued by NWS Tampa Bay Area, FL

Home | Current Version | Previous Version | Text Only | Print | Product List | Glossary On
Versions: 1 2 3 4 5 6 7 8 9 10 11 12
000
FTUS42 KTBW 240500
TAFSRQ
TAF
KSRQ 240524Z 2406/2506 07007KT P6SM FEW250
     FM241500 03012KT P6SM FEW040
     FM250100 01007KT P6SM FEW250=

USA.gov is the U.S. government's official web portal to all federal, state and local government web resources and services.